Regional Weather Roundup
Issued by NWS

Home | Current Version | Previous Version | Graphics & Text | Print | Product List | Glossary On
Versions: 1 2 3 4 5 6 7 8 9 10 11 12 13 14 15 16 17 18 19 20 21 22 23 24 25 26 27 28 29 30 31 32 33 34 35 36 37 38 39 40 41 42 43 44 45 46 47 48 49 50
000
ASUS43 KLSX 141159
RWRMO

WEATHER SUMMARY FOR MISSOURI
NATIONAL WEATHER SERVICE SPRINGFIELD MO
700 AM CDT MON JUL 14 2014

NOTE: "FAIR" INDICATES FEW OR NO CLOUDS BELOW 12,000 FEET WITH NO
       SIGNIFICANT WEATHER AND/OR OBSTRUCTIONS TO VISIBILITY.
       CURRENT SKY AND/OR WEATHER CONDITIONS ARE NOT AVAILABLE FOR
       CHILLICOTHE AND FARMINGTON.

MOZ001>031-035>038-043-044-053-054-141300-
...NORTHERN AND WESTERN MISSOURI...

CITY           SKY/WX    TMP DP  RH WIND       PRES   REMARKS
KANSAS CTY INT PTCLDY    69  66  90 SW7       29.98R
6HR MIN TEMP:  67; 6HR MAX TEMP:  74;

KANSAS C DTWN  CLEAR     73  69  87 CALM      29.97R
6HR MIN TEMP:  72; 6HR MAX TEMP:  76;

LEE`S SUMMIT   CLEAR     69  66  90 SW6       29.99R
6HR MIN TEMP:  68; 6HR MAX TEMP:  72;

ST JOSEPH      PTCLDY    69  68  96 CALM      29.99R
6HR MIN TEMP:  68; 6HR MAX TEMP:  74;

CHILLICOTHE      N/A     70  68  93 CALM      29.95S
6HR MIN TEMP:  67; 6HR MAX TEMP:  72;

KIRKSVILLE     SUNNY     70  68  93 W3        29.94R
6HR MIN TEMP:  66; 6HR MAX TEMP:  70;


$$
MOZ066>068-077>081-088>096-101>105-141300-
...SOUTHWEST MISSOURI...

CITY           SKY/WX    TMP DP  RH WIND       PRES   REMARKS
SPRINGFIELD    FOG       71  70  96 CALM      29.98S VSB 1/4
6HR MIN TEMP:  70; 6HR MAX TEMP:  76; 6HR PCP:  0.52;

JOPLIN         PTCLDY    70  69  97 S3        29.99R
6HR MIN TEMP:  68; 6HR MAX TEMP:  79;


$$
MOZ032>034-039>042-045>050-055>058-069>072-141300-
...CENTRAL MISSOURI...

CITY           SKY/WX    TMP DP  RH WIND       PRES   REMARKS
COLUMBIA       FOG       70  70 100 SW5       29.95S VSB<1/4
6HR MIN TEMP:  69; 6HR MAX TEMP:  71;

JEFFERSON CITY CLOUDY    72  71  97 CALM      29.94R FOG
6HR MIN TEMP:  72; 6HR MAX TEMP:  74;

ROLLA          FOG       70  69  97 W6        29.95R VSB<1/4
6HR MIN TEMP:  68; 6HR MAX TEMP:  70;

SEDALIA        CLEAR     71  70  96 SW6       29.97R
6HR MIN TEMP:  68; 6HR MAX TEMP:  72;

OSAGE BEACH    CLOUDY    72  70  94 W5        29.97R VSB<1/4

$$
MOZ051-052-059>065-141300-
...EAST CENTRAL MISSOURI...

CITY           SKY/WX    TMP DP  RH WIND       PRES   REMARKS
ST LOUIS INTL  CLOUDY    75  72  90 W7        29.93R FOG
6HR MIN TEMP:  74; 6HR MAX TEMP:  78;

SPIRIT OF STL  FOG       72  70  93 W5        29.92R VSB 1
6HR MIN TEMP:  70; 6HR MAX TEMP:  74;

ST CHARLES     CLOUDY    73  72  96 W5        29.91R FOG
6HR MIN TEMP:  73; 6HR MAX TEMP:  76;


$$
MOZ072>076-082>087-097>100-106>115-141300-
...SOUTH CENTRAL AND SOUTHEAST MISSOURI...

CITY           SKY/WX    TMP DP  RH WIND       PRES   REMARKS
CAPE GIRARDEAU CLOUDY    72  70  93 S7        29.95R
6HR MIN TEMP:  71; 6HR MAX TEMP:  81; 6HR PCP:  0.74;

FARMINGTON     CLOUDY    72  70  94 CALM      29.98R
6HR MIN TEMP:  70; 6HR MAX TEMP:  72; 6HR PCP:  0.24;

POPLAR BLUFF   MOSUNNY   72  69  90 S3        29.95R
6HR MIN TEMP:  72; 6HR MAX TEMP:  82; 6HR PCP:  1.04;

WEST PLAINS    CLOUDY    70  67  90 CALM      29.98S
6HR MIN TEMP:  69; 6HR MAX TEMP:  73; 6HR PCP:  0.48;


$$


USA.gov is the U.S. government's official web portal to all federal, state and local government web resources and services.